Coulee Dam, Washington
Current Conditions -  °F | °C
As of 2:53 PM on Monday 22 Dec 2014 (Local Time) from KOMK Reporting Station
Clear Clear  
Wind Chill: 45°   Ceiling: Unl
Heat Index: 45°   Visibility: 10mi
Dew Point: 31°   Wind: 0mph
Humidity: 58%   Direction: NA
Pressure: 30.27"   Gusts: NA
Location:  47.97°N, 118.98°W
Report Text: KOMK 222253Z AUTO 00000KT 10SM CLR 07/M01 A3027 RMK AO2 SLP260 T00721006
Loading
Personal Weather Stations






























Interactive Weather Map New forecast layout! Learn more

10-Day Weather Forecast

Advertisements
Track Severe Weather on mobile